User: anonymous   Login
Location: Hylvaty SDH
(49.9612°N, 16.4057°E)
Time: 04:16:25
(UTC+01:00)
Language:

LightSail 2 - Orbit

View from above orbital plane
View from above orbital plane
View from above satellite
View from above satellite

Ground track
Ground track

The orbit data is extracted from the following two-line orbital elements,

1 44420U 19036AC  20024.19432154 +.00004998 +00000-0 +11089-2 0  9991
2 44420 024.0105 304.6591 0010293 329.7393 030.2536 14.54205796029145
Epoch (UTC): 24 January 2020 04:39:49
Eccentricity: 0.0010293
inclination: 24.0105°
perigee height: 704 km
apogee height: 719 km
right ascension of ascending node: 304.6591°
argument of perigee: 329.7393°
revolutions per day: 14.54205796
mean anomaly at epoch: 30.2536°
orbit number at epoch: 2914

The dashed part of the orbit path shows where the satellite is in the earth's shadow,  

DLR